Total_Precipitation_Accumulation
0.01 0.00 0.01 0.02 0.03 0.04 0.03 0.04 0.05 0.06 0.07 0.06 0.05 0.05 0.05 0.05 0.05 0.04 0.03 0.04 0.06 0.10 0.14 0.15 0.15 0.16 0.18 0.12 0.04 0.02 0.02 0.03 0.04 0.05 0.06 0.07 0.08 0.09 0.10 0.08 0.08 0.07 0.04
0.01 0.00 0.01 0.01 0.02 0.04 0.04 0.03 0.04 0.06 0.05 0.05 0.05 0.05 0.05 0.05 0.06 0.06 0.05 0.06 0.07 0.10 0.10 0.11 0.12 0.12 0.10 0.05 0.02 0.01 0.02 0.04 0.09 0.13 0.15 0.17 0.17 0.14 0.19 0.22 0.18 0.11 0.05
0.01 0.00 0.01 0.01 0.02 0.03 0.03 0.05 0.06 0.07 0.07 0.07 0.06 0.05 0.05 0.06 0.06 0.06 0.06 0.06 0.10 0.11 0.11 0.09 0.08 0.06 0.04 0.02 0.01 0.01 0.03 0.06 0.12 0.21 0.40 0.54 0.45 0.33 0.27 0.25 0.22 0.14 0.10
0.01 0.00 0.00 0.01 0.01 0.02 0.03 0.04 0.06 0.06 0.06 0.06 0.05 0.05 0.05 0.05 0.06 0.07 0.07 0.09 0.13 0.15 0.13 0.08 0.06 0.03 0.01 0.01 0.01 0.02 0.04 0.07 0.13 0.31 0.70 0.74 0.76 0.61 0.34 0.26 0.20 0.21 0.26
0.01 0.00 0.00 0.01 0.01 0.02 0.02 0.02 0.04 0.05 0.05 0.05 0.05 0.04 0.05 0.05 0.05 0.08 0.11 0.14 0.16 0.16 0.16 0.12 0.08 0.04 0.01 0.01 0.01 0.02 0.04 0.08 0.17 0.38 0.71 1.04 1.11 0.69 0.44 0.34 0.29 0.28 0.34
0.02 0.00 0.00 0.01 0.02 0.02 0.01 0.02 0.04 0.05 0.05 0.05 0.05 0.05 0.06 0.06 0.06 0.10 0.18 0.23 0.21 0.19 0.21 0.20 0.16 0.10 0.04 0.02 0.01 0.02 0.03 0.08 0.19 0.42 0.73 1.30 1.14 0.67 0.49 0.39 0.35 0.35 0.39
0.02 0.00 0.00 0.02 0.03 0.02 0.01 0.02 0.04 0.05 0.07 0.09 0.09 0.08 0.08 0.07 0.09 0.14 0.22 0.24 0.23 0.22 0.23 0.20 0.14 0.07 0.05 0.05 0.04 0.03 0.05 0.08 0.16 0.41 0.71 1.15 0.92 0.51 0.38 0.31 0.30 0.32 0.36
0.02 0.01 0.00 0.02 0.04 0.03 0.03 0.04 0.06 0.07 0.09 0.11 0.11 0.10 0.07 0.06 0.09 0.14 0.18 0.21 0.23 0.20 0.15 0.12 0.09 0.08 0.09 0.09 0.07 0.08 0.09 0.08 0.11 0.29 0.56 0.68 0.51 0.31 0.21 0.17 0.15 0.16 0.19
0.03 0.01 0.01 0.02 0.03 0.04 0.06 0.07 0.08 0.09 0.09 0.10 0.09 0.07 0.06 0.06 0.08 0.12 0.16 0.21 0.21 0.14 0.10 0.09 0.07 0.06 0.06 0.06 0.05 0.04 0.04 0.05 0.07 0.18 0.46 0.52 0.29 0.18 0.14 0.11 0.07 0.08 0.09
0.08 0.04 0.04 0.06 0.03 0.02 0.03 0.06 0.07 0.08 0.08 0.07 0.06 0.04 0.06 0.08 0.10 0.13 0.11 0.12 0.12 0.08 0.05 0.03 0.02 0.01 0.01 0.01 0.01 0.01 0.01 0.02 0.04 0.11 0.24 0.34 0.23 0.15 0.11 0.08 0.05 0.05 0.05
0.20 0.18 0.16 0.11 0.04 0.02 0.03 0.02 0.04 0.04 0.04 0.04 0.03 0.04 0.08 0.12 0.14 0.15 0.10 0.09 0.06 0.03 0.02 0.01 0.00 0.00 0.00 0.00 0.00 0.00 0.01 0.01 0.04 0.10 0.19 0.26 0.26 0.18 0.12 0.08 0.06 0.05 0.04
0.28 0.26 0.09 0.06 0.02 0.01 0.02 0.02 0.03 0.02 0.02 0.02 0.06 0.04 0.10 0.18 0.22 0.17 0.14 0.08 0.03 0.02 0.01 0.01 0.01 0.01 0.00 0.00 0.01 0.00 0.00 0.01 0.04 0.10 0.22 0.27 0.25 0.22 0.15 0.10 0.07 0.05 0.03
0.12 0.07 0.04 0.02 0.02 0.02 0.03 0.04 0.06 0.06 0.06 0.05 0.08 0.07 0.12 0.14 0.11 0.11 0.13 0.10 0.06 0.04 0.05 0.05 0.02 0.01 0.01 0.01 0.01 0.01 0.01 0.02 0.03 0.05 0.13 0.18 0.20 0.23 0.20 0.14 0.09 0.06 0.04
0.20 0.09 0.04 0.03 0.02 0.03 0.04 0.05 0.06 0.05 0.06 0.06 0.06 0.04 0.11 0.17 0.16 0.14 0.18 0.15 0.14 0.12 0.12 0.09 0.07 0.05 0.03 0.02 0.02 0.02 0.03 0.03 0.04 0.05 0.10 0.14 0.18 0.23 0.24 0.19 0.14 0.11 0.09
0.46 0.22 0.11 0.05 0.04 0.04 0.07 0.07 0.06 0.07 0.07 0.07 0.09 0.07 0.13 0.13 0.13 0.15 0.15 0.16 0.14 0.14 0.14 0.11 0.07 0.08 0.07 0.05 0.04 0.04 0.04 0.05 0.06 0.07 0.11 0.17 0.19 0.24 0.29 0.27 0.23 0.18 0.16
0.67 0.33 0.19 0.11 0.07 0.07 0.09 0.10 0.09 0.08 0.13 0.20 0.17 0.14 0.15 0.15 0.17 0.19 0.21 0.22 0.20 0.17 0.18 0.16 0.13 0.12 0.11 0.09 0.08 0.08 0.08 0.09 0.11 0.11 0.16 0.18 0.21 0.23 0.31 0.36 0.33 0.27 0.26
0.85 0.46 0.34 0.20 0.16 0.16 0.14 0.13 0.12 0.13 0.16 0.25 0.28 0.24 0.20 0.20 0.25 0.27 0.29 0.31 0.29 0.28 0.27 0.25 0.24 0.19 0.16 0.16 0.17 0.15 0.14 0.15 0.17 0.21 0.25 0.30 0.32 0.30 0.31 0.34 0.35 0.34 0.33
1.01 0.71 0.58 0.40 0.30 0.28 0.18 0.17 0.15 0.19 0.24 0.26 0.30 0.32 0.28 0.27 0.31 0.38 0.45 0.50 0.51 0.49 0.48 0.49 0.43 0.36 0.33 0.31 0.30 0.25 0.21 0.24 0.28 0.32 0.34 0.36 0.40 0.35 0.30 0.29 0.31 0.34 0.35
1.09 0.88 0.74 0.62 0.43 0.37 0.32 0.27 0.26 0.30 0.37 0.43 0.48 0.47 0.48 0.48 0.56 0.72 0.84 0.86 0.80 0.75 0.72 0.67 0.63 0.58 0.54 0.50 0.40 0.34 0.29 0.31 0.38 0.39 0.38 0.39 0.42 0.39 0.35 0.31 0.32 0.37 0.38
1.22 1.12 0.94 0.77 0.59 0.52 0.51 0.47 0.50 0.54 0.62 0.71 0.82 0.92 1.04 1.14 1.18 1.25 1.23 1.16 1.06 1.04 1.03 0.95 0.85 0.75 0.65 0.58 0.43 0.34 0.29 0.28 0.33 0.39 0.39 0.39 0.42 0.43 0.43 0.41 0.38 0.36 0.37
1.43 1.36 1.12 0.91 0.91 0.87 0.84 0.85 1.02 1.14 1.29 1.52 1.73 1.89 2.01 2.00 1.94 1.89 1.85 1.73 1.53 1.39 1.28 1.10 0.95 0.82 0.69 0.59 0.50 0.41 0.31 0.23 0.25 0.30 0.30 0.32 0.33 0.31 0.32 0.34 0.36 0.34 0.32
1.52 1.41 1.27 1.24 1.28 1.33 1.48 1.70 2.01 2.30 2.54 2.76 2.97 3.03 2.99 2.83 2.68 2.54 2.39 2.15 1.90 1.71 1.46 1.19 0.98 0.83 0.71 0.61 0.57 0.55 0.44 0.32 0.23 0.19 0.19 0.20 0.20 0.20 0.20 0.21 0.21 0.21 0.22
1.34 1.38 1.34 1.50 1.76 1.95 2.30 2.68 3.05 3.49 3.73 3.78 3.70 3.60 3.43 3.23 3.02 2.72 2.46 2.24 1.98 1.68 1.42 1.18 0.96 0.82 0.67 0.55 0.50 0.50 0.46 0.39 0.29 0.20 0.16 0.14 0.14 0.14 0.14 0.15 0.17 0.17 0.14
1.22 1.30 1.35 1.54 1.99 2.48 3.09 3.60 3.95 4.24 4.37 4.37 4.22 3.94 3.56 3.24 2.96 2.61 2.31 1.99 1.68 1.42 1.21 0.99 0.77 0.61 0.51 0.41 0.34 0.30 0.29 0.28 0.30 0.23 0.15 0.13 0.12 0.12 0.12 0.13 0.14 0.16 0.15
1.13 1.32 1.54 1.84 2.38 2.91 3.45 3.91 4.19 4.30 4.29 4.12 3.81 3.45 3.05 2.66 2.35 2.05 1.77 1.51 1.26 1.01 0.80 0.61 0.49 0.42 0.37 0.33 0.30 0.28 0.28 0.27 0.27 0.26 0.20 0.13 0.11 0.10 0.09 0.09 0.11 0.13 0.12
1.03 1.32 1.60 1.90 2.37 2.80 3.12 3.51 3.70 3.80 3.75 3.49 3.07 2.60 2.20 1.90 1.64 1.45 1.24 1.03 0.83 0.65 0.53 0.44 0.36 0.32 0.30 0.30 0.28 0.26 0.25 0.24 0.23 0.23 0.22 0.16 0.12 0.09 0.08 0.08 0.09 0.10 0.10